Time,TemperatureF,DewpointF,PressureIn,WindDirection,WindDirectionDegrees,WindSpeedMPH,WindSpeedGustMPH,Humidity,HourlyPrecipIn,Conditions,Clouds,dailyrainin,SoftwareType,DateUTC
2013-02-24 00:06:00,31.7,31.0,29.90,ESE,115,0.0,0.0,96,0.00,,,0.00,weatherlink.com 1.10,2013-02-24 05:06:00,
2013-02-24 00:21:00,31.7,31.0,29.89,ESE,115,0.0,0.0,96,0.00,,,0.00,weatherlink.com 1.10,2013-02-24 05:21:00,
2013-02-24 00:36:00,31.7,31.0,29.89,ESE,115,0.0,0.0,96,0.00,,,0.00,weatherlink.com 1.10,2013-02-24 05:36:00,
2013-02-24 00:51:00,31.7,31.0,29.89,ESE,115,0.0,0.0,96,0.00,,,0.00,weatherlink.com 1.10,2013-02-24 05:51:00,
2013-02-24 01:06:00,31.7,31.0,29.88,ESE,115,0.0,0.0,96,0.00,,,0.00,weatherlink.com 1.10,2013-02-24 06:06:00,
2013-02-24 01:21:00,31.7,31.0,29.88,ESE,115,0.0,0.0,96,0.00,,,0.00,weatherlink.com 1.10,2013-02-24 06:21:00,
2013-02-24 01:36:00,31.7,31.0,29.88,ESE,115,0.0,0.0,96,0.00,,,0.00,weatherlink.com 1.10,2013-02-24 06:36:00,
2013-02-24 01:51:00,31.6,31.0,29.87,ESE,115,0.0,0.0,96,0.00,,,0.00,weatherlink.com 1.10,2013-02-24 06:51:00,
2013-02-24 02:06:00,31.6,31.0,29.86,ESE,115,0.0,0.0,96,0.00,,,0.00,weatherlink.com 1.10,2013-02-24 07:06:00,
2013-02-24 02:21:00,31.7,31.0,29.86,NNE,18,0.0,0.0,96,0.00,,,0.00,weatherlink.com 1.10,2013-02-24 07:21:00,
2013-02-24 02:36:00,31.7,31.0,29.84,NNE,18,0.0,0.0,96,0.00,,,0.00,weatherlink.com 1.10,2013-02-24 07:36:00,
2013-02-24 02:51:00,31.7,31.0,29.84,NNE,18,0.0,0.0,96,0.00,,,0.00,weatherlink.com 1.10,2013-02-24 07:51:00,
2013-02-24 03:06:00,31.7,31.0,29.84,NNE,18,0.0,0.0,96,0.00,,,0.00,weatherlink.com 1.10,2013-02-24 08:06:00,
2013-02-24 03:21:00,31.7,31.0,29.84,NNE,18,0.0,0.0,96,0.00,,,0.00,weatherlink.com 1.10,2013-02-24 08:21:00,
2013-02-24 03:36:00,31.7,31.0,29.83,NNE,18,0.0,0.0,96,0.00,,,0.00,weatherlink.com 1.10,2013-02-24 08:36:00,
2013-02-24 03:51:00,31.7,31.0,29.83,NNE,18,0.0,0.0,96,0.00,,,0.00,weatherlink.com 1.10,2013-02-24 08:51:00,
2013-02-24 04:06:00,31.8,31.0,29.83,NNE,18,0.0,0.0,97,0.00,,,0.00,weatherlink.com 1.10,2013-02-24 09:06:00,
2013-02-24 04:21:00,31.7,31.0,29.83,NNE,18,0.0,0.0,96,0.00,,,0.00,weatherlink.com 1.10,2013-02-24 09:21:00,
2013-02-24 04:36:00,31.7,31.0,29.83,NNE,18,0.0,0.0,97,0.00,,,0.00,weatherlink.com 1.10,2013-02-24 09:36:00,
2013-02-24 04:51:00,31.9,31.0,29.83,NNE,18,0.0,0.0,97,0.00,,,0.00,weatherlink.com 1.10,2013-02-24 09:51:00,
2013-02-24 05:06:00,31.8,31.0,29.83,East,96,0.0,1.0,97,0.00,,,0.00,weatherlink.com 1.10,2013-02-24 10:06:00,
2013-02-24 05:21:00,31.8,31.0,29.83,ESE,107,0.0,1.0,97,0.00,,,0.00,weatherlink.com 1.10,2013-02-24 10:21:00,
2013-02-24 05:36:00,31.8,31.0,29.83,ESE,110,0.0,1.0,97,0.00,,,0.00,weatherlink.com 1.10,2013-02-24 10:36:00,
2013-02-24 05:51:00,31.8,31.0,29.83,ENE,57,0.0,0.0,97,0.00,,,0.00,weatherlink.com 1.10,2013-02-24 10:51:00,
2013-02-24 06:06:00,31.7,31.0,29.83,ENE,57,0.0,0.0,97,0.00,,,0.00,weatherlink.com 1.10,2013-02-24 11:06:00,
2013-02-24 06:21:00,31.7,31.0,29.83,ENE,57,0.0,0.0,97,0.00,,,0.00,weatherlink.com 1.10,2013-02-24 11:21:00,
2013-02-24 06:36:00,31.7,31.0,29.83,ENE,57,0.0,0.0,97,0.00,,,0.00,weatherlink.com 1.10,2013-02-24 11:36:00,
2013-02-24 06:51:00,31.7,31.0,29.83,ENE,57,0.0,0.0,97,0.00,,,0.00,weatherlink.com 1.10,2013-02-24 11:51:00,
2013-02-24 07:06:00,31.7,31.0,29.83,East,98,1.0,1.0,97,0.00,,,0.00,weatherlink.com 1.10,2013-02-24 12:06:00,
2013-02-24 07:21:00,31.9,31.0,29.83,ENE,68,0.0,1.0,97,0.00,,,0.00,weatherlink.com 1.10,2013-02-24 12:21:00,
2013-02-24 07:51:00,31.9,31.0,29.83,SE,133,0.0,1.0,97,0.00,,,0.00,weatherlink.com 1.10,2013-02-24 12:51:00,
2013-02-24 08:06:00,32.0,31.0,29.83,ESE,115,0.0,1.0,97,0.00,,,0.00,weatherlink.com 1.10,2013-02-24 13:06:00,
2013-02-24 08:21:00,32.1,31.0,29.82,ESE,115,0.0,0.0,97,0.00,,,0.00,weatherlink.com 1.10,2013-02-24 13:21:00,
2013-02-24 08:36:00,32.2,32.0,29.82,ESE,115,0.0,0.0,97,0.01,,,0.01,weatherlink.com 1.10,2013-02-24 13:36:00,
2013-02-24 08:51:00,32.3,32.0,29.82,ESE,115,0.0,0.0,97,0.01,,,0.01,weatherlink.com 1.10,2013-02-24 13:51:00,
2013-02-24 09:06:00,32.4,32.0,29.82,ESE,115,0.0,0.0,97,0.01,,,0.01,weatherlink.com 1.10,2013-02-24 14:06:00,
2013-02-24 09:21:00,32.5,32.0,29.82,ESE,114,0.0,0.0,97,0.01,,,0.01,weatherlink.com 1.10,2013-02-24 14:21:00,
2013-02-24 09:36:00,32.6,32.0,29.81,ESE,115,0.0,0.0,97,0.00,,,0.01,weatherlink.com 1.10,2013-02-24 14:36:00,
2013-02-24 09:51:00,33.0,32.0,29.81,ESE,115,0.0,0.0,97,0.01,,,0.02,weatherlink.com 1.10,2013-02-24 14:51:00,
2013-02-24 10:06:00,33.1,32.0,29.80,ESE,115,0.0,0.0,96,0.01,,,0.02,weatherlink.com 1.10,2013-02-24 15:06:00,
2013-02-24 10:22:00,33.3,32.0,29.80,ESE,115,0.0,1.0,96,0.02,,,0.03,weatherlink.com 1.10,2013-02-24 15:22:00,
2013-02-24 10:37:00,33.5,33.0,29.80,ESE,115,0.0,1.0,96,0.03,,,0.04,weatherlink.com 1.10,2013-02-24 15:37:00,
2013-02-24 10:52:00,33.5,33.0,29.79,East,98,0.0,1.0,96,0.03,,,0.05,weatherlink.com 1.10,2013-02-24 15:52:00,
2013-02-24 11:07:00,33.8,33.0,29.79,East,98,0.0,0.0,96,0.03,,,0.05,weatherlink.com 1.10,2013-02-24 16:07:00,
2013-02-24 11:22:00,34.2,33.0,29.80,East,99,0.0,0.0,96,0.03,,,0.06,weatherlink.com 1.10,2013-02-24 16:22:00,
2013-02-24 11:38:00,34.1,33.0,29.80,East,99,0.0,0.0,95,0.03,,,0.07,weatherlink.com 1.10,2013-02-24 16:38:00,
2013-02-24 11:52:00,34.2,33.0,29.79,East,98,0.0,1.0,95,0.02,,,0.07,weatherlink.com 1.10,2013-02-24 16:52:00,
2013-02-24 12:07:00,34.1,33.0,29.79,NE,45,0.0,1.0,95,0.03,,,0.08,weatherlink.com 1.10,2013-02-24 17:07:00,
2013-02-24 12:22:00,34.2,33.0,29.79,NE,43,0.0,2.0,95,0.02,,,0.08,weatherlink.com 1.10,2013-02-24 17:22:00,
2013-02-24 12:37:00,33.9,33.0,29.79,ENE,74,2.0,3.0,95,0.02,,,0.09,weatherlink.com 1.10,2013-02-24 17:37:00,
2013-02-24 12:52:00,33.9,33.0,29.79,ENE,68,0.0,3.0,95,0.02,,,0.09,weatherlink.com 1.10,2013-02-24 17:52:00,
2013-02-24 13:07:00,33.9,33.0,29.79,ENE,57,0.0,3.0,95,0.01,,,0.09,weatherlink.com 1.10,2013-02-24 18:07:00,
2013-02-24 13:22:00,34.1,33.0,29.79,North,3,0.0,2.0,95,0.02,,,0.10,weatherlink.com 1.10,2013-02-24 18:22:00,
2013-02-24 13:39:00,34.2,33.0,29.79,East,90,2.0,2.0,94,0.01,,,0.10,weatherlink.com 1.10,2013-02-24 18:39:00,
2013-02-24 13:52:00,34.3,33.0,29.79,West,265,0.0,2.0,95,0.01,,,0.10,weatherlink.com 1.10,2013-02-24 18:52:00,
2013-02-24 14:07:00,34.4,33.0,29.79,NE,34,2.0,4.0,94,0.01,,,0.10,weatherlink.com 1.10,2013-02-24 19:07:00,
2013-02-24 14:22:00,34.3,33.0,29.79,ENE,60,0.0,5.0,94,0.00,,,0.10,weatherlink.com 1.10,2013-02-24 19:22:00,
2013-02-24 14:37:00,34.0,33.0,29.80,NE,40,0.0,3.0,94,0.01,,,0.11,weatherlink.com 1.10,2013-02-24 19:37:00,
2013-02-24 14:52:00,33.7,32.0,29.80,SE,139,0.0,7.0,94,0.01,,,0.11,weatherlink.com 1.10,2013-02-24 19:52:00,
2013-02-24 15:07:00,33.4,32.0,29.80,ENE,61,1.0,5.0,94,0.02,,,0.12,weatherlink.com 1.10,2013-02-24 20:07:00,
2013-02-24 15:22:00,33.2,32.0,29.80,NW,316,0.0,5.0,94,0.02,,,0.12,weatherlink.com 1.10,2013-02-24 20:22:00,
2013-02-24 15:37:00,32.9,31.0,29.81,ESE,112,3.0,6.0,94,0.01,,,0.12,weatherlink.com 1.10,2013-02-24 20:37:00,
2013-02-24 15:52:00,32.7,31.0,29.81,North,352,2.0,7.0,94,0.01,,,0.12,weatherlink.com 1.10,2013-02-24 20:52:00,
2013-02-24 16:07:00,32.6,31.0,29.82,NNE,26,1.0,8.0,94,0.00,,,0.12,weatherlink.com 1.10,2013-02-24 21:07:00,
2013-02-24 16:22:00,32.5,31.0,29.82,NNE,24,1.0,4.0,94,0.00,,,0.12,weatherlink.com 1.10,2013-02-24 21:22:00,
2013-02-24 16:37:00,32.4,31.0,29.82,ENE,66,0.0,4.0,94,0.00,,,0.12,weatherlink.com 1.10,2013-02-24 21:37:00,
2013-02-24 16:52:00,32.3,31.0,29.83,NNE,32,1.0,4.0,94,0.00,,,0.12,weatherlink.com 1.10,2013-02-24 21:52:00,
2013-02-24 17:07:00,32.2,31.0,29.84,West,279,1.0,5.0,94,0.00,,,0.12,weatherlink.com 1.10,2013-02-24 22:07:00,
2013-02-24 17:22:00,32.1,31.0,29.84,ESE,116,0.0,2.0,94,0.00,,,0.12,weatherlink.com 1.10,2013-02-24 22:22:00,
2013-02-24 17:37:00,32.1,31.0,29.85,North,359,4.0,4.0,94,0.00,,,0.12,weatherlink.com 1.10,2013-02-24 22:37:00,
2013-02-24 17:52:00,32.1,31.0,29.85,West,279,0.0,1.0,94,0.00,,,0.12,weatherlink.com 1.10,2013-02-24 22:52:00,
2013-02-24 18:07:00,32.0,31.0,29.86,West,277,1.0,1.0,95,0.00,,,0.12,weatherlink.com 1.10,2013-02-24 23:07:00,
2013-02-24 18:22:00,32.0,31.0,29.87,WSW,239,0.0,1.0,95,0.00,,,0.12,weatherlink.com 1.10,2013-02-24 23:22:00,
2013-02-24 18:37:00,31.9,31.0,29.88,WNW,299,0.0,1.0,95,0.00,,,0.12,weatherlink.com 1.10,2013-02-24 23:37:00,
2013-02-24 18:52:00,31.9,31.0,29.89,NW,314,0.0,2.0,95,0.00,,,0.12,weatherlink.com 1.10,2013-02-24 23:52:00,
2013-02-24 19:07:00,31.9,31.0,29.89,North,7,0.0,2.0,95,0.00,,,0.12,weatherlink.com 1.10,2013-02-25 00:07:00,
2013-02-24 19:22:00,31.9,31.0,29.90,NW,307,0.0,1.0,95,0.00,,,0.12,weatherlink.com 1.10,2013-02-25 00:22:00,
2013-02-24 19:37:00,31.9,31.0,29.91,NNW,328,0.0,1.0,95,0.00,,,0.12,weatherlink.com 1.10,2013-02-25 00:37:00,
2013-02-24 19:52:00,31.8,31.0,29.91,WNW,283,0.0,1.0,95,0.00,,,0.12,weatherlink.com 1.10,2013-02-25 00:52:00,
2013-02-24 20:07:00,31.8,31.0,29.92,East,92,0.0,1.0,95,0.00,,,0.12,weatherlink.com 1.10,2013-02-25 01:07:00,
2013-02-24 20:22:00,31.8,31.0,29.92,NE,39,0.0,2.0,95,0.00,,,0.12,weatherlink.com 1.10,2013-02-25 01:22:00,
2013-02-24 20:37:00,31.8,31.0,29.93,ESE,120,0.0,1.0,95,0.00,,,0.12,weatherlink.com 1.10,2013-02-25 01:37:00,
2013-02-24 20:52:00,31.8,31.0,29.93,SE,144,0.0,1.0,95,0.00,,,0.12,weatherlink.com 1.10,2013-02-25 01:52:00,
2013-02-24 21:07:00,31.7,31.0,29.94,ESE,120,0.0,0.0,95,0.00,,,0.12,weatherlink.com 1.10,2013-02-25 02:07:00,
2013-02-24 21:22:00,31.5,30.0,29.94,ESE,120,0.0,0.0,95,0.00,,,0.12,weatherlink.com 1.10,2013-02-25 02:22:00,
2013-02-24 21:37:00,31.3,30.0,29.94,ESE,120,0.0,0.0,95,0.00,,,0.12,weatherlink.com 1.10,2013-02-25 02:37:00,
2013-02-24 21:52:00,31.2,30.0,29.95,ESE,120,0.0,0.0,96,0.00,,,0.12,weatherlink.com 1.10,2013-02-25 02:52:00,
2013-02-24 22:07:00,31.1,30.0,29.95,ESE,120,0.0,0.0,96,0.00,,,0.12,weatherlink.com 1.10,2013-02-25 03:07:00,
2013-02-24 22:23:00,30.9,30.0,29.95,ESE,120,0.0,0.0,96,0.00,,,0.12,weatherlink.com 1.10,2013-02-25 03:23:00,
2013-02-24 22:37:00,30.7,30.0,29.95,ESE,120,0.0,0.0,96,0.00,,,0.12,weatherlink.com 1.10,2013-02-25 03:37:00,
2013-02-24 22:53:00,30.4,29.0,29.95,ESE,120,0.0,0.0,96,0.00,,,0.12,weatherlink.com 1.10,2013-02-25 03:53:00,
2013-02-24 23:08:00,30.3,29.0,29.96,ESE,120,0.0,0.0,96,0.00,,,0.12,weatherlink.com 1.10,2013-02-25 04:08:00,
2013-02-24 23:23:00,30.4,29.0,29.96,ESE,120,0.0,0.0,96,0.00,,,0.12,weatherlink.com 1.10,2013-02-25 04:23:00,
2013-02-24 23:38:00,30.6,30.0,29.97,ESE,120,0.0,0.0,96,0.00,,,0.12,weatherlink.com 1.10,2013-02-25 04:38:00,
2013-02-24 23:53:00,30.6,30.0,29.97,ESE,120,0.0,0.0,96,0.00,,,0.12,weatherlink.com 1.10,2013-02-25 04:53:00,